Location: Unspecified
(49.8670°N, 0.0000°E)
Time: 16:13:27
(UTC+00:00)

S-56A Canister/Altair - Pass Details

Date: 21 June 2019
Orbit: 632 x 2500 km, 38.9° (Epoch: 18 July)

Event Time Altitude Azimuth Distance (km) Brightness Sun altitude
Rises 20:17:31 0° 263° (W) 3,715 11.7 -1.5°
Reaches altitude 10° 20:21:17 10° 245° (WSW) 2,474 10.5 -1.9°
Maximum altitude 20:24:52 17° 205° (SSW) 1,784 9.3 -2.4°
Drops below altitude 10° 20:27:59 10° 163° (SSE) 2,096 9.3 -2.7°
Enters shadow 20:30:01 - 146° (SSE) 2,661 9.7 -3.0°
Sets 20:30:49 0° 142° (SE) 2,927 - -3.1°
